Location: Unspecified
(33.6682°S, 0.0000°E)
Time: 18:08:33
(UTC+00:00)

Courier 1B - Pass Details

Date: 21 June 2019
Orbit: 962 x 1209 km, 28.3° (Epoch: 23 August)

Event Time Altitude Azimuth Distance (km) Brightness Sun altitude
Exits shadow 04:05:05 - 355° (N) 3,223 10.2 -36.3°
Reaches altitude 10° 04:06:32 10° 5° (N) 2,980 10.1 -36.0°
Maximum altitude 04:09:29 13° 29° (NNE) 2,741 10.2 -35.4°
Drops below altitude 10° 04:12:24 10° 54° (NE) 2,910 10.6 -34.8°
Sets 04:16:56 0° 80° (E) 3,810 11.7 -33.9°
